COSMOS 1417

导读

COSMOS 1417是苏联(独联体CIS)在1982年10月19日发射的一颗宇宙系列卫星,遵循苏联对军用、科学卫星统一以“Cosmos+序号”的命名规则。该系列卫星多数承担军事相关任务,用途涵盖侦察、电子情报、空间技术试验等,通过模糊命名隐藏任务属性。它作为冷战时期苏联航天部署的组成部分,如今已完成使命退役,成为漂浮在近地空间的人造天体。

Basic Information
目录编号:
13617
目录名称:
COSMOS 1417
国际标识:
1982-102A
轨道中心:
EARTH
卫星名称:
COSMOS 1417
卫星全名:
--
卫星状态:
在轨 (已飞行15946 天)
发射日期:
1982-10-19 UTC
国别 :
俄罗斯(独联体) (CIS)
星等 :
--
Orbit Information
数据来源 国际轨道数据 AOE轨道数据
星历时间 2026-06-16T15:21:28+0800
5小时前
查看轨道信息
2026-06-15T04:00:00+0800
1天前
查看轨道信息
半长轴 7357.604km 7357.601km
偏心率 0.0035692 0.0035777
轨道倾角 82.968° 82.968°
近地点辐角 69.294° 73.353°
升交点赤经 259.731° 260.818°
平近点角 351.475° 255.718°
近地点 953.206km 953.14km
远地点 1005.728km 1005.788km
周期 104.680分钟 104.680分钟
每日圈数 13.756192 13.756199
Detailed Information
使用方式:
暂无
2D Orbit Map
3D Orbit Map
Orbit Altitude Analysis Chart
Orbit Inclination Analysis Chart
Orbit Comprehensive Analysis Chart
View Comprehensive Chart